TITAN 4 CENTAUR R/B, 27169

Orbit data source: Space-Track

TITAN 4 CENTAUR R/B, 27169 is space debris in GEO originally from a launch on Mon, 14 Jan 2002 UTC launched from the Air Force Eastern Test Range (AFETR). Debris objects in space refer to the collection of defunct objects orbiting the Earth. Examples of debris include non-operational satellites, rocket bodies, and fragments generated from explosions, collisions, or faulty payload assembly.

Loading next visibility...
Identifier
27169, 2002-001B
Orbit
GEO
Country
Flag of USUS
Related business
Manufacturer
LMA
Mission
Spacecraft
Bus & Motor
CENTAUR T, RL-10 X2
Mass
~1,840 kg wet, ~1,840 kg dry
Launch date (UTC)
2002-01-14 (24 years ago)
Launch vehicle
Unknown
Launch site
Air Force Eastern Test Range (AFETR)
Object type
Payload
Rocket body
Debris
Shape & HBR
Cyl, 4.5 m
Radar Cross Section
37.970 m²

Expand to show TLE details & history
Last TLE update: 1 day ago

TLE from 1 day ago
0 TITAN 4 CENTAUR R/B
1 27169U 02001B   25312.21287280 -.00000161  00000-0  00000-0 0  9990
2 27169   9.8377  31.1192 0051383 132.3900 227.9640  1.00146633 24163
Epoch: 2025-11-08T05:06Z
TLE epoch observation values (Epoch: 2025-11-08T05:06:32.209Z)
Latitude
Longitude
-93.2597°
Altitude
35,967.238 km
Speed
3.063 km/s
True Right ascension
02h 04m 04s
True Declination
0° 00' 00"
Sunlit
Object was in daylight at epoch
Visualization orbit readout
Latitude
Unknown
Longitude
Unknown
Altitude
Unknown
Speed
Unknown
Apparent Right ascension
Unknown
Apparent Declination
Unknown
Sunlit
N/A
Visualization observer readout
Local Sidereal Time
11:34:34
Azimuth
Unknown
Elevation
Unknown
Doppler factor
Unknown
Orbital elements
Apogee altitude
36,039.581 km
Perigee altitude
35,605.899 km
Semi-major axis
42,200.877 km
Eccentricity
0.00514
Inclination
9.8377°
RAAN
31.1192°
Arg. of periapsis
132.39°
True anomaly
227.52856°
Mean anomaly
227.964°
Eccentric anomaly
227.74609°
Mean motion
0.25036 °/min
Orbital period
1,437.94 mins
BSTAR
0
Loading maneuver chart data...
Computing Atmospheric mass density...
Loading historical data...
Loading historical data...
Loading historical data...
Loading historical data...
Loading historical data...
Loading historical data...
Loading historical data...
Other satellites on launch #1 in the year 2002 (2002-01-14 UTC)

Documentation

Showing up to 5 results
|